Regional Weather Roundup
Issued by NWS

Home | Current Version | Previous Version | Text Only | Print | Product List | Glossary Off
Versions: 1 2 3 4 5 6 7 8 9 10 11 12 13 14 15 16 17 18 19 20 21 22 23 24 25 26 27 28 29 30 31 32 33 34 35 36 37 38 39 40 41 42 43 44 45 46 47 48 49 50

000
ASUS43 KMKX 300000
RWRWI

WISCONSIN REGIONAL WEATHER ROUNDUP
NATIONAL WEATHER SERVICE MILWAUKEE/SULLIVAN WI
700 PM CDT SUN MAY 29 2016

NOTE: "FAIR" INDICATES FEW OR NO CLOUDS BELOW 12,000 FEET WITH NO
SIGNIFICANT WEATHER AND/OR OBSTRUCTIONS TO VISIBILITY.

WIZ001-002-006>008-014>016-023>028-300100-
NORTHWEST WISCONSIN

CITY           SKY/WX    TMP DP  RH WIND       PRES   REMARKS
SUPERIOR ARPT  MOSUNNY   72  55  54 NW14      29.88S
ASHLAND        SUNNY     70  55  59 NW6       29.88S
6HR MIN TEMP:  65; 6HR MAX TEMP:  71; 6HR PCP: TRACE;

HAYWARD        SUNNY     72  54  53 VRB6      29.91S
6HR MIN TEMP:  63; 6HR MAX TEMP:  73; 6HR PCP: TRACE;

SIREN          MOSUNNY   74  51  44 W12G22    29.92S
CUMBERLAND     MOSUNNY   70  52  52 NW9       29.93S
RICE LAKE      MOSUNNY   74  54  50 W12       29.93F
CHETEK         MOSUNNY   73  57  55 W8        29.92S
LADYSMITH      SUNNY     72  56  57 W10       29.93S
EAU CLAIRE     NOT AVBL
MENOMONIE      SUNNY     75  56  50 W7        29.92F
NEW RICHMOND   SUNNY     74  54  49 W8        29.94S
OSCEOLA        MOSUNNY   74  56  53 W9        29.95F
$$

WIZ003>005-009-010-017-018-300100-
NORTH CENTRAL WISCONSIN

CITY           SKY/WX    TMP DP  RH WIND       PRES   REMARKS
MANITOWISH WTR NOT AVBL
ARBOR VITAE    CLOUDY    65  56  74 NW7       29.91S
WOODRUFF       CLOUDY    65  56  74 NW7       29.91S
RHINELANDER    CLOUDY    68  54  60 W9        29.91R
6HR MIN TEMP:  66; 6HR MAX TEMP:  73; 6HR PCP: TRACE;

EAGLE RIVER      N/A     64  55  70 W13G20    29.90R
LAND O LAKES   LGT RAIN  62  58  87 W7        29.90R
PHILLIPS       PTSUNNY   68  56  65 W5        29.91S
TOMAHAWK       MOSUNNY   69  55  59 W13G20    29.91S
MEDFORD        MOSUNNY   69  55  61 W13       29.93S
MERRILL        NOT AVBL
$$

WIZ029-030-035-036-043>047-300100-
CENTRAL WISCONSIN

CITY           SKY/WX    TMP DP  RH WIND       PRES   REMARKS
WAUSAU         MOSUNNY   73  55  53 W18       29.90R
6HR MIN TEMP:  66; 6HR MAX TEMP:  75; 6HR PCP:  0.03;

MOSINEE        NOT AVBL
MARSHFIELD     SUNNY     72  57  59 W10       29.93R
6HR MIN TEMP:  64; 6HR MAX TEMP:  75; 6HR PCP:  0.05;

STEVENS POINT  PTSUNNY   73  55  54 W12G17    29.92S
WAUPACA        SUNNY     78  58  50 W12       29.91R
WAUTOMA        SUNNY     77  55  46 W14       29.92S
WISC RAPIDS    SUNNY     76  51  41 W15       29.93S
6HR MIN TEMP:  69; 6HR MAX TEMP:  78; 6HR PCP: TRACE;

CAMP DOUGLAS   NOT AVBL
$$

WIZ011>013-019>022-031-037>040-048>050-300100-
NORTHEAST WISCONSIN

CITY           SKY/WX    TMP DP  RH WIND       PRES   REMARKS
ANTIGO         MOSUNNY   69  58  67 W14G24    29.90S
SHAWANO        MOSUNNY   76  59  56 W12G21    29.88S
OCONTO         PTSUNNY   73  62  68 W10G16    29.85F
STURGEON BAY   NOT AVBL
GREEN BAY      SUNNY     75  60  59 W8        29.88S
6HR MIN TEMP:  68; 6HR MAX TEMP:  75;

MANITOWOC      NOT AVBL
APPLETON       PTSUNNY   73  55  53 W12G21    29.89F
CLINTONVILLE   SUNNY     73  54  49 W15G23    29.89S
OSHKOSH        MOSUNNY   76  56  49 W8        29.90S
6HR MIN TEMP:  69; 6HR MAX TEMP:  76; 6HR PCP:  0.01;

$$

WIZ032>034-041-042-053>061-300100-
SOUTHWEST WISCONSIN

CITY           SKY/WX    TMP DP  RH WIND       PRES   REMARKS
LA CROSSE      CLOUDY    74  61  63 W7        29.94R
6HR MIN TEMP:  73; 6HR MAX TEMP:  82; 6HR PCP:  0.04;

SPARTA         PTSUNNY   76  57  51 W10G16    29.95R
VIROQUA        MOSUNNY   76  57  52 W12       29.96F
BOSCOBEL       MOSUNNY   79  61  53 S7        29.94F HX  80
6HR MIN TEMP:  75; 6HR MAX TEMP:  81;

PRAIRIE DU CHI CLOUDY    78  58  50 W7        29.95F
PLATTEVILLE    MOSUNNY   76  60  58 W7        29.98F
$$

WIZ056-057-062-063-064-067-068-300100-
SOUTH CENTRAL WISCONSIN

CITY           SKY/WX    TMP DP  RH WIND       PRES   REMARKS
REEDSBURG      PTSUNNY   74  59  58 W9        29.94S
BARABOO/DELLS  MOSUNNY   73  56  53 SW6       29.95S
LONE ROCK      NOT AVBL
MINERAL POINT  SUNNY     73  55  53 W12       29.98F
MADISON        CLOUDY    74  57  55 VRB5      29.96S
6HR MIN TEMP:  73; 6HR MAX TEMP:  79;

MIDDLETON      CLOUDY    73  61  67 W6        29.97S
WATERTOWN      CLOUDY    75  58  55 W13G21    29.95S
MONROE         MOSUNNY   77  54  44 W20G25    29.98S
JANESVILLE     MOSUNNY   79  55  44 W15       29.96F
$$

WIZ051-052-058>065-066-070>072-300100-
SOUTHEAST WISCONSIN

CITY           SKY/WX    TMP DP  RH WIND       PRES   REMARKS
MILWAUKEE      MOSUNNY   78  55  44 W13       29.94S
6HR MIN TEMP:  75; 6HR MAX TEMP:  80;

WAUKESHA       PTSUNNY   73  54  49 W17       29.96S
MILWAUKEE/TIMM NOT AVBL
RACINE         SUNNY     78  54  43 W10G17    29.96S
6HR MIN TEMP:  74; 6HR MAX TEMP:  80;

BURLINGTON     PTSUNNY   74  55  50 W8        29.97S
KENOSHA        SUNNY     76  57  51 W9        29.96S
6HR MIN TEMP:  75; 6HR MAX TEMP:  80;

FOND DU LAC    MOSUNNY   76  57  51 W8        29.92S
6HR MIN TEMP:  72; 6HR MAX TEMP:  77; 6HR PCP:  0.01;

SHEBOYGAN      SUNNY     75  59  57 W9        29.91S
6HR MIN TEMP:  70; 6HR MAX TEMP:  77; 6HR PCP: TRACE;

WEST BEND      MOSUNNY   77  52  41 W16       29.94R
JUNEAU         MOSUNNY   75  58  56 SW13      29.95S
$$

LSZ147-162-300100-
LAKE SUPERIOR

STATION/POSITION TIME  TEMP    WIND        PRES    WAVE
                       AIR SEA DIR/SP/G            HT/PER
                 (UTC) (F)     (DEG/KT/KT) (MB)    (FT/S)
W MID LAKE BUOY  2250   46 38  260/ 16/ 17 1010.0R   2/ 4
DEVILS ISLAND    2300   52     240/ 16/ 17 1011.3R
SAXON HARBOR     2300   67     290/  9/ 15 1011.2
$$

LMZ867-665-643>646-300100-
LAKE MICHIGAN

STATION/POSITION TIME  TEMP    WIND        PRES    WAVE
                       AIR SEA DIR/SP/G            HT/PER
                 (UTC) (F)     (DEG/KT/KT) (MB)    (FT/S)
CHAMBERS ISLAND  2340   69     210/  5/ 10 1010.8R
N MID LAKE BUOY  2250   52 48  190/ 16/ 17 1009.8F   3/ 5
NORTHPORT PIER   2300   71     220/  6/ 16 1010.2S
KEWAUNEE LAKESHO 2300                      1011.1F
SHEBOYGAN LAKESH 2300   76     280/ 15/ 18 1012.8F
PORT WASHINGTON  2300   80     270/  8/ 14 1013.5S
S MID LAKE BUOY  2250   58 51  190/ 10/ 12 1014.0F   1
KENOSHA   LAKESH 2300   80     270/ 15/ 21 1013.9S
$$

TC  - TEMPERATURE IN CELSIUS
VSB - VISIBILITY IN STATUTE MILES
WCI - WIND CHILL INDEX
HX  - HEAT INDEX





USA.gov is the U.S. government's official web portal to all federal, state and local government web resources and services.